Regional Weather Roundup
Issued by NWS

Home | Current Version | Previous Version | Graphics & Text | Print | Product List | Glossary On
Versions: 1 2 3 4 5 6 7 8 9 10 11 12 13 14 15 16 17 18 19 20 21 22 23 24 25 26 27 28 29 30 31 32 33 34 35 36 37 38 39 40 41 42 43 44 45 46 47 48 49 50
458
ASUS43 KLSX 201510
RWRMO

WEATHER SUMMARY FOR MISSOURI
NATIONAL WEATHER SERVICE SPRINGFIELD MO
900 AM CST FRI JAN 20 2017

NOTE: "FAIR" INDICATES FEW OR NO CLOUDS BELOW 12,000 FEET WITH NO
       SIGNIFICANT WEATHER AND/OR OBSTRUCTIONS TO VISIBILITY.
       CURRENT SKY AND/OR WEATHER CONDITIONS ARE NOT AVAILABLE FOR
       CHILLICOTHE AND FARMINGTON.

MOZ001>031-035>038-043-044-053-054-201600-
...NORTHERN AND WESTERN MISSOURI...

CITY           SKY/WX    TMP DP  RH WIND       PRES   REMARKS
KANSAS CTY INT FOG       46  44  93 E6        29.56F VSB 1/16
KANSAS C DTWN  CLOUDY    47  46  97 E8        29.55F FOG
LEE`S SUMMIT   FOG       45  45 100 E8        29.55F VSB 1/4
ST JOSEPH      FOG       42  42 100 CALM      29.58S VSB 3/4
CHILLICOTHE      N/A     43  43 100 CALM      29.62R
KIRKSVILLE     FOG       42  42 100 SE3       29.62S VSB 1/4

$$
MOZ066>068-077>081-088>096-101>105-201600-
...SOUTHWEST MISSOURI...

CITY           SKY/WX    TMP DP  RH WIND       PRES   REMARKS
SPRINGFIELD    CLOUDY    49  47  93 SE9       29.56F
JOPLIN         CLOUDY    50  48  93 SE9       29.56R
BRANSON        CLOUDY    46  46 100 SE7       29.61S FOG

$$
MOZ032>034-039>042-045>050-055>058-069>072-201600-
...CENTRAL MISSOURI...

CITY           SKY/WX    TMP DP  RH WIND       PRES   REMARKS
COLUMBIA       CLOUDY    47  47 100 SE3       29.62R FOG
JEFFERSON CITY CLOUDY    48  47  96 SE5       29.64R
ROLLA          CLOUDY    46  46 100 S12G20    29.63R FOG
SEDALIA        FOG       46  46 100 E3        29.62R VSB 1/4
WHITEMAN AFB   FOG       46  46 100 SE7       29.57F VSB 1/2
WARRENSBURG    FOG       45  45 100 CALM      29.59F VSB 1/4
OSAGE BEACH    CLOUDY    47  46  97 SE6       29.63S FOG

$$
MOZ051-052-059>065-201600-
...EAST CENTRAL MISSOURI...

CITY           SKY/WX    TMP DP  RH WIND       PRES   REMARKS
ST LOUIS INTL  CLOUDY    51  47  86 S10       29.67R
SPIRIT OF STL  CLOUDY    50  49  96 S6        29.66R
ST CHARLES     FOG       47  47 100 E6        29.65S VSB 1/2

$$
MOZ072>076-082>087-097>100-106>115-201600-
...SOUTH CENTRAL AND SOUTHEAST MISSOURI...

CITY           SKY/WX    TMP DP  RH WIND       PRES   REMARKS
CAPE GIRARDEAU CLOUDY    53  49  86 S7        29.72R
FARMINGTON     CLOUDY    49  47  93 S7        29.69R
POPLAR BLUFF   CLOUDY    52  51  97 SE5       29.70R
WEST PLAINS    CLOUDY    49  48  97 SE8       29.66S FOG

$$




USA.gov is the U.S. government's official web portal to all federal, state and local government web resources and services.